• In Russia
  • List of Countries
  • For 7 days
  • Water Temperature
  • Satellite Maps
  • Weather Map
  • Weather Widgets
  • user-avatar
    Login

    Hourly Weather Adelaide

    Today, 5 December, Monday

    Time Temperature Precipitation Wind Pressure Humidity
    00:00 +18°C° 0 mm 4 mps 754 mmHg 84%
    01:00 +17°C° 0 mm 4 mps 754 mmHg 84%
    02:00 +17°C° 0 mm 4 mps 754 mmHg 84%
    03:00 +16°C° 0 mm 3 mps 754 mmHg 83%
    04:00 +16°C° 0 mm 3 mps 755 mmHg 80%
    05:00 +16°C° 0 mm 3 mps 755 mmHg 76%
    06:00 +16°C° 0 mm 3 mps 756 mmHg 73%
    07:00 +18°C° 0 mm 3 mps 756 mmHg 64%
    08:00 +20°C° 0 mm 3 mps 756 mmHg 55%
    09:00 +21°C° 0 mm 3 mps 757 mmHg 49%
    10:00 +22°C° 0 mm 3 mps 756 mmHg 45%
    11:00 +24°C° 0 mm 3 mps 756 mmHg 41%
    12:00 +25°C° 0 mm 3 mps 756 mmHg 36%
    13:00 +25°C° 0 mm 4 mps 756 mmHg 37%
    14:00 +25°C° 0 mm 4 mps 756 mmHg 37%
    15:00 +25°C° 0 mm 4 mps 755 mmHg 38%
    16:00 +22°C° 0 mm 4 mps 755 mmHg 44%
    17:00 +21°C° 0 mm 4 mps 756 mmHg 50%
    18:00 +19°C° 0 mm 4 mps 756 mmHg 56%
    19:00 +18°C° 0 mm 4 mps 756 mmHg 59%
    20:00 +17°C° 0 mm 3 mps 756 mmHg 63%
    21:00 +16°C° 0 mm 3 mps 757 mmHg 66%
    22:00 +16°C° 0 mm 3 mps 756 mmHg 67%
    23:00 +14°C° 0 mm 3 mps 756 mmHg 68%

    Tomorrow, 6 December, Tuesday

    Time Temperature Precipitation Wind Pressure Humidity
    00:00 +15°C° 0 mm 2 mps 756 mmHg 69%
    01:00 +15°C° 0 mm 2 mps 756 mmHg 70%
    02:00 +14°C° 0 mm 2 mps 756 mmHg 71%
    03:00 +14°C° 0 mm 2 mps 756 mmHg 72%
    04:00 +15°C° 0 mm 2 mps 757 mmHg 70%
    05:00 +15°C° 0 mm 2 mps 757 mmHg 68%
    06:00 +15°C° 0 mm 2 mps 758 mmHg 66%
    07:00 +18°C° 0 mm 2 mps 758 mmHg 56%
    08:00 +20°C° 0 mm 2 mps 758 mmHg 46%
    09:00 +23°C° 0 mm 2 mps 758 mmHg 36%
    10:00 +24°C° 0 mm 3 mps 758 mmHg 33%
    11:00 +25°C° 0 mm 3 mps 757 mmHg 30%
    12:00 +27°C° 0 mm 3 mps 757 mmHg 27%
    13:00 +26°C° 0 mm 3 mps 757 mmHg 28%
    14:00 +26°C° 0 mm 4 mps 757 mmHg 28%
    15:00 +26°C° 0 mm 4 mps 756 mmHg 29%
    16:00 +25°C° 0 mm 4 mps 756 mmHg 33%
    17:00 +22°C° 0 mm 3 mps 757 mmHg 37%
    18:00 +21°C° 0 mm 3 mps 757 mmHg 41%
    19:00 +19°C° 0 mm 3 mps 757 mmHg 49%
    20:00 +18°C° 0 mm 3 mps 757 mmHg 57%
    21:00 +16°C° 0 mm 3 mps 758 mmHg 65%
    22:00 +14°C° 0 mm 3 mps 758 mmHg 68%
    23:00 +15°C° 0 mm 2 mps 758 mmHg 72%

    Day after tomorrow, 7 December, Wednesday

    Time Temperature Precipitation Wind Pressure Humidity
    00:00 +14°C° 0 mm 2 mps 757 mmHg 75%
    01:00 +13°C° 0 mm 2 mps 757 mmHg 77%
    02:00 +13°C° 0 mm 2 mps 757 mmHg 79%
    03:00 +13°C° 0 mm 2 mps 757 mmHg 80%
    04:00 +14°C° 0 mm 1 mps 757 mmHg 73%
    05:00 +15°C° 0 mm 1 mps 757 mmHg 66%
    06:00 +16°C° 0 mm 1 mps 757 mmHg 59%
    07:00 +21°C° 0 mm 1 mps 757 mmHg 49%
    08:00 +24°C° 0 mm 1 mps 757 mmHg 38%
    09:00 +27°C° 0 mm 1 mps 756 mmHg 27%
    10:00 +29°C° 0 mm 2 mps 756 mmHg 26%
    11:00 +30°C° 0 mm 2 mps 755 mmHg 24%
    12:00 +32°C° 0 mm 2 mps 754 mmHg 22%
    13:00 +32°C° 0 mm 2 mps 753 mmHg 23%
    14:00 +33°C° 0 mm 3 mps 752 mmHg 24%
    15:00 +33°C° 0 mm 3 mps 752 mmHg 24%
    16:00 +31°C° 0 mm 2 mps 751 mmHg 29%
    17:00 +29°C° 0 mm 2 mps 750 mmHg 34%
    18:00 +28°C° 0 mm 1 mps 750 mmHg 39%
    19:00 +27°C° 0 mm 2 mps 749 mmHg 38%
    20:00 +27°C° 0 mm 2 mps 749 mmHg 37%
    21:00 +26°C° 0 mm 3 mps 748 mmHg 37%
    22:00 +26°C° 0.1 mm 4 mps 748 mmHg 39%
    23:00 +26°C° 0.1 mm 4 mps 747 mmHg 42%

    8 December, Thursday

    Time Temperature Precipitation Wind Pressure Humidity
    00:00 +26°C° 0.1 mm 5 mps 746 mmHg 44%
    01:00 +25°C° 0.3 mm 5 mps 747 mmHg 53%
    02:00 +22°C° 0.3 mm 6 mps 747 mmHg 63%
    03:00 +21°C° 0.3 mm 7 mps 747 mmHg 72%
    04:00 +20°C° 0.1 mm 7 mps 748 mmHg 70%
    05:00 +18°C° 0.1 mm 7 mps 749 mmHg 68%
    06:00 +16°C° 0.1 mm 6 mps 750 mmHg 66%
    07:00 +17°C° 0 mm 7 mps 751 mmHg 60%
    08:00 +18°C° 0 mm 7 mps 752 mmHg 55%
    09:00 +20°C° 0 mm 7 mps 752 mmHg 49%
    10:00 +20°C° 0 mm 7 mps 753 mmHg 47%
    11:00 +20°C° 0 mm 7 mps 753 mmHg 44%
    12:00 +21°C° 0 mm 7 mps 753 mmHg 42%
    13:00 +21°C° 0 mm 7 mps 753 mmHg 43%
    14:00 +20°C° 0 mm 7 mps 753 mmHg 44%
    15:00 +20°C° 0 mm 8 mps 753 mmHg 45%
    16:00 +18°C° 0.1 mm 7 mps 754 mmHg 49%
    17:00 +17°C° 0.1 mm 7 mps 755 mmHg 52%
    18:00 +16°C° 0.1 mm 6 mps 755 mmHg 56%
    19:00 +16°C° 0 mm 6 mps 756 mmHg 58%
    20:00 +15°C° 0 mm 6 mps 757 mmHg 61%
    21:00 +14°C° 0 mm 5 mps 757 mmHg 63%
    22:00 +14°C° 0 mm 5 mps 758 mmHg 66%
    23:00 +13°C° 0 mm 5 mps 758 mmHg 68%

    9 December, Friday

    Time Temperature Precipitation Wind Pressure Humidity
    00:00 +13°C° 0 mm 5 mps 758 mmHg 70%
    01:00 +13°C° 0 mm 5 mps 758 mmHg 69%
    02:00 +13°C° 0 mm 5 mps 758 mmHg 67%
    03:00 +12°C° 0 mm 5 mps 759 mmHg 66%
    04:00 +13°C° 0 mm 4 mps 759 mmHg 64%
    05:00 +13°C° 0 mm 4 mps 760 mmHg 63%
    06:00 +13°C° 0 mm 4 mps 761 mmHg 61%
    07:00 +14°C° 0 mm 4 mps 761 mmHg 59%
    08:00 +14°C° 0 mm 4 mps 762 mmHg 56%
    09:00 +15°C° 0 mm 4 mps 762 mmHg 54%
    10:00 +17°C° 0 mm 4 mps 762 mmHg 51%
    11:00 +18°C° 0 mm 4 mps 762 mmHg 47%
    12:00 +19°C° 0 mm 4 mps 762 mmHg 44%
    13:00 +19°C° 0 mm 4 mps 762 mmHg 44%
    14:00 +19°C° 0 mm 5 mps 761 mmHg 44%
    15:00 +20°C° 0 mm 5 mps 761 mmHg 44%
    16:00 +19°C° 0 mm 5 mps 761 mmHg 47%
    17:00 +17°C° 0 mm 5 mps 762 mmHg 51%
    18:00 +17°C° 0 mm 4 mps 762 mmHg 54%
    19:00 +15°C° 0 mm 4 mps 763 mmHg 60%
    20:00 +13°C° 0 mm 4 mps 763 mmHg 65%
    21:00 +12°C° 0 mm 3 mps 764 mmHg 71%
    22:00 +12°C° 0 mm 3 mps 764 mmHg 74%
    23:00 +11°C° 0 mm 3 mps 763 mmHg 77%

    10 December, Saturday

    Time Temperature Precipitation Wind Pressure Humidity
    00:00 +11°C° 0 mm 3 mps 763 mmHg 80%
    01:00 +10°C° 0 mm 3 mps 763 mmHg 81%
    02:00 +10°C° 0 mm 2 mps 763 mmHg 83%
    03:00 +10°C° 0 mm 2 mps 763 mmHg 85%
    04:00 +10°C° 0 mm 2 mps 764 mmHg 80%
    05:00 +12°C° 0 mm 2 mps 764 mmHg 75%
    06:00 +13°C° 0 mm 2 mps 765 mmHg 70%
    07:00 +16°C° 0 mm 2 mps 765 mmHg 59%
    08:00 +18°C° 0 mm 2 mps 765 mmHg 49%
    09:00 +22°C° 0 mm 1 mps 765 mmHg 38%
    10:00 +23°C° 0 mm 2 mps 764 mmHg 35%
    11:00 +24°C° 0 mm 2 mps 764 mmHg 33%
    12:00 +26°C° 0 mm 3 mps 763 mmHg 30%
    13:00 +26°C° 0 mm 3 mps 763 mmHg 31%
    14:00 +25°C° 0 mm 4 mps 763 mmHg 33%
    15:00 +25°C° 0 mm 4 mps 762 mmHg 34%
    16:00 +23°C° 0 mm 5 mps 762 mmHg 39%
    17:00 +22°C° 0 mm 5 mps 763 mmHg 43%
    18:00 +20°C° 0 mm 5 mps 763 mmHg 48%
    19:00 +17°C° 0 mm 5 mps 763 mmHg 55%
    20:00 +17°C° 0 mm 4 mps 763 mmHg 62%
    21:00 +14°C° 0 mm 4 mps 764 mmHg 68%
    22:00 +14°C° 0 mm 4 mps 763 mmHg 71%
    23:00 +13°C° 0 mm 4 mps 763 mmHg 74%
    Show more